User: anonymous   Login
Location: Unspecified
(51.0950°N, 12.9690°E)
Time: 21:25:19
(UTC+00:00)
Language:

Tsikada Rocket - Orbit

View from above orbital plane
View from above orbital plane
View from above satellite
View from above satellite

Ground track
Ground track

The orbit data is extracted from the following two-line orbital elements,

1 23466U 95002D   22016.72632566  .00000054  00000-0  40878-4 0  9995
2 23466  82.9253 103.3454 0034093 212.5727 257.4225 13.74448050353056
Epoch (UTC): 16 January 2022 17:25:54
Eccentricity: 0.0034093
inclination: 82.9253°
perigee height: 958 km
apogee height: 1009 km
right ascension of ascending node: 103.3454°
argument of perigee: 212.5727°
revolutions per day: 13.74448050
mean anomaly at epoch: 257.4225°
orbit number at epoch: 35305

The dashed part of the orbit path shows where the satellite is in the earth's shadow,  

DLR